Location: Asheville, NC
(35.6000°N, 82.5500°W)
Time: 01:53:43
(UTC-04:00)

Vanguard 1 - Pass Details

Date: 13 December 2017
Orbit: 650 x 3833 km, 34.2° (Epoch: 20 July)

Event Time Altitude Azimuth Distance (km) Brightness Sun altitude
Rises 12:48:41 0° 272° (W) 7,361 14.6 30.9°
Reaches altitude 10° 12:54:15 10° 272° (W) 5,940 14.2 30.8°
Maximum altitude 13:10:44 83° 188° (S) 1,916 12.2 30.2°
Drops below altitude 10° 13:19:14 10° 101° (ESE) 3,268 12.8 29.8°
Sets 13:21:25 0° 101° (E) 3,974 13.2 29.7°
